N76SAM KEWR-KBOS

Flight info

Callsign N76SAM
Flight time 0h 37m
Altitude 21000
Route MERIT ROBUC3
Aircraft A20N/M-SDE2E3FGHIRWXY/LB1

Departure

Time 2026-05-04 05:04
Airport Newark Liberty International Airport (KEWR)

Arrival

Time 2026-05-04 05:41
Airport Boston Logan International Airport (KBOS)
Time Latitude Longitude Altitude Speed Heading
2026-05-04 04:47 40.68752 -74.18539 21 ft 0 kts 183°
2026-05-04 04:49 40.68765 -74.18539 26 ft 0 kts 183°
2026-05-04 04:56 40.68770 -74.18538 24 ft 3 kts 183°
2026-05-04 04:56 40.68788 -74.18537 23 ft 3 kts 183°
2026-05-04 04:56 40.68806 -74.18536 23 ft 3 kts 183°
2026-05-04 04:56 40.68816 -74.18535 23 ft 1 kts 187°
2026-05-04 04:57 40.68812 -74.18546 25 ft 2 kts 245°
2026-05-04 04:57 40.68800 -74.18609 21 ft 13 kts 256°
2026-05-04 04:57 40.68728 -74.18728 20 ft 20 kts 188°
2026-05-04 04:57 40.68583 -74.18624 21 ft 24 kts 132°
2026-05-04 04:58 40.68502 -74.18524 20 ft 13 kts 171°
2026-05-04 04:58 40.68377 -74.18524 19 ft 22 kts 163°
2026-05-04 04:58 40.68284 -74.18333 23 ft 30 kts 104°
2026-05-04 04:58 40.68272 -74.18019 19 ft 38 kts 80°
2026-05-04 04:59 40.68371 -74.17670 22 ft 44 kts 50°
2026-05-04 04:59 40.68620 -74.17401 26 ft 49 kts 25°
2026-05-04 04:59 40.68953 -74.17209 19 ft 56 kts 24°
2026-05-04 04:59 40.69217 -74.17041 18 ft 12 kts 26°
2026-05-04 05:00 40.69244 -74.17024 18 ft 3 kts 26°
2026-05-04 05:00 40.69351 -74.16952 20 ft 28 kts 27°
2026-05-04 05:00 40.69908 -74.16602 16 ft 29 kts 26°
2026-05-04 05:01 40.70050 -74.16507 15 ft 19 kts 26°
2026-05-04 05:01 40.70199 -74.16467 18 ft 27 kts
2026-05-04 05:01 40.70246 -74.16461 18 ft 0 kts
2026-05-04 05:02 40.70251 -74.16460 18 ft 5 kts
2026-05-04 05:02 40.70279 -74.16366 18 ft 22 kts 89°
2026-05-04 05:02 40.70218 -74.16250 18 ft 23 kts 208°
2026-05-04 05:03 40.69933 -74.16439 14 ft 86 kts 206°
2026-05-04 05:03 40.69108 -74.16955 21 ft 176 kts 205°
2026-05-04 05:04 40.64751 -74.17066 3554 ft 248 kts 128°
2026-05-04 05:04 40.64052 -74.14850 4290 ft 289 kts 95°
2026-05-04 05:04 40.64452 -74.12070 4684 ft 337 kts 64°
2026-05-04 05:06 40.79625 -73.98147 4996 ft 387 kts 38°
2026-05-04 05:06 40.81703 -73.95885 4995 ft 386 kts 40°
2026-05-04 05:06 40.83726 -73.93544 5114 ft 387 kts 41°
2026-05-04 05:07 40.85704 -73.91131 5925 ft 388 kts 43°
2026-05-04 05:07 40.87659 -73.88648 7227 ft 392 kts 44°
2026-05-04 05:07 40.89611 -73.86083 8506 ft 400 kts 45°
2026-05-04 05:09 40.93823 -73.59593 16705 ft 454 kts 124°
2026-05-04 05:09 40.92032 -73.56124 17525 ft 459 kts 125°
2026-05-04 05:10 40.90179 -73.52658 18306 ft 465 kts 126°
2026-05-04 05:10 40.88272 -73.49177 19049 ft 470 kts 126°
2026-05-04 05:10 40.86667 -73.45467 19750 ft 476 kts 110°
2026-05-04 05:10 40.86090 -73.41169 20377 ft 475 kts 90°
2026-05-04 05:11 40.86669 -73.36893 20723 ft 478 kts 70°
2026-05-04 05:11 40.88358 -73.33078 20883 ft 486 kts 50°
2026-05-04 05:11 40.90826 -73.30046 20949 ft 484 kts 39°
2026-05-04 05:11 40.93459 -73.27282 20975 ft 483 kts 38°
2026-05-04 05:12 40.96105 -73.24536 20985 ft 484 kts 38°
2026-05-04 05:12 40.98724 -73.21726 20990 ft 484 kts 39°
2026-05-04 05:12 41.01285 -73.18836 20992 ft 484 kts 41°
2026-05-04 05:12 41.03790 -73.15854 20993 ft 483 kts 42°
2026-05-04 05:13 41.06241 -73.12792 20995 ft 483 kts 44°
2026-05-04 05:13 41.08607 -73.09708 20996 ft 484 kts 45°
2026-05-04 05:13 41.10964 -73.06524 20997 ft 484 kts 46°
2026-05-04 05:13 41.13287 -73.03288 20996 ft 484 kts 46°
2026-05-04 05:14 41.15576 -73.00013 20996 ft 483 kts 47°
2026-05-04 05:14 41.17837 -72.96700 20997 ft 484 kts 48°
2026-05-04 05:14 41.19922 -72.93201 20996 ft 484 kts 56°
2026-05-04 05:14 41.21692 -72.89394 20996 ft 484 kts 59°
2026-05-04 05:15 41.23346 -72.85495 20996 ft 484 kts 61°
2026-05-04 05:15 41.24952 -72.81544 20996 ft 484 kts 62°
2026-05-04 05:15 41.26503 -72.77631 20998 ft 484 kts 62°
2026-05-04 05:15 41.28057 -72.73655 21003 ft 485 kts 63°
2026-05-04 05:16 41.29603 -72.69660 20999 ft 485 kts 63°
2026-05-04 05:16 41.31135 -72.65672 21002 ft 484 kts 63°
2026-05-04 05:16 41.32661 -72.61681 20999 ft 484 kts 63°
2026-05-04 05:16 41.34181 -72.57687 21000 ft 485 kts 63°
2026-05-04 05:17 41.35702 -72.53679 21000 ft 485 kts 63°
2026-05-04 05:17 41.37220 -72.49667 20999 ft 485 kts 63°
2026-05-04 05:17 41.38734 -72.45654 20998 ft 484 kts 63°
2026-05-04 05:17 41.40225 -72.41694 21001 ft 484 kts 63°
2026-05-04 05:18 41.41730 -72.37683 20999 ft 484 kts 63°
2026-05-04 05:18 41.43236 -72.33662 20998 ft 485 kts 63°
2026-05-04 05:18 41.44734 -72.29648 20825 ft 482 kts 63°
2026-05-04 05:18 41.46220 -72.25651 20123 ft 478 kts 63°
2026-05-04 05:19 41.47680 -72.21716 18902 ft 470 kts 63°
2026-05-04 05:19 41.49112 -72.17846 17436 ft 460 kts 64°
2026-05-04 05:19 41.50508 -72.14055 15943 ft 450 kts 64°
2026-05-04 05:19 41.51870 -72.10341 14490 ft 440 kts 64°
2026-05-04 05:20 41.53206 -72.06678 13177 ft 442 kts 64°
2026-05-04 05:20 41.54505 -72.03036 12713 ft 430 kts 65°
2026-05-04 05:20 41.55732 -71.99388 12352 ft 430 kts 66°
2026-05-04 05:20 41.56867 -71.95851 12152 ft 403 kts 67°
2026-05-04 05:21 41.57889 -71.92540 12069 ft 368 kts 68°
2026-05-04 05:21 41.58807 -71.89498 12028 ft 338 kts 68°
2026-05-04 05:21 41.59646 -71.86685 12015 ft 314 kts 68°
2026-05-04 05:21 41.60443 -71.83993 12012 ft 312 kts 68°
2026-05-04 05:22 41.61242 -71.81283 12008 ft 312 kts 68°
2026-05-04 05:22 41.62034 -71.78591 12007 ft 311 kts 68°
2026-05-04 05:22 41.62825 -71.75895 12004 ft 312 kts 68°
2026-05-04 05:22 41.63617 -71.73194 12006 ft 312 kts 68°
2026-05-04 05:23 41.64407 -71.70495 12007 ft 311 kts 68°
2026-05-04 05:23 41.65196 -71.67798 12008 ft 312 kts 68°
2026-05-04 05:23 41.65987 -71.65094 12007 ft 312 kts 68°
2026-05-04 05:23 41.66777 -71.62394 11827 ft 310 kts 68°
2026-05-04 05:24 41.67547 -71.59767 11578 ft 301 kts 68°
2026-05-04 05:24 41.68307 -71.57175 11261 ft 299 kts 68°
2026-05-04 05:24 41.69061 -71.54601 11124 ft 295 kts 68°
2026-05-04 05:24 41.69807 -71.52045 11061 ft 295 kts 69°
2026-05-04 05:25 41.70553 -71.49485 11027 ft 295 kts 69°
2026-05-04 05:25 41.71314 -71.46934 11015 ft 295 kts 67°
2026-05-04 05:25 41.72152 -71.44425 11010 ft 295 kts 64°
2026-05-04 05:25 41.73054 -71.41956 11008 ft 295 kts 63°
2026-05-04 05:26 41.74006 -71.39513 11005 ft 295 kts 62°
2026-05-04 05:26 41.74989 -71.37095 11004 ft 295 kts 60°
2026-05-04 05:26 41.75991 -71.34703 11003 ft 295 kts 60°
2026-05-04 05:26 41.77009 -71.32312 11006 ft 296 kts 60°
2026-05-04 05:27 41.78036 -71.29922 11005 ft 295 kts 60°
2026-05-04 05:28 41.85209 -71.13453 10505 ft 282 kts 59°
2026-05-04 05:29 41.86208 -71.11194 10024 ft 280 kts 59°
2026-05-04 05:29 41.87197 -71.08959 9539 ft 278 kts 59°
2026-05-04 05:29 41.88180 -71.06736 9066 ft 276 kts 59°
2026-05-04 05:29 41.89157 -71.04529 8593 ft 274 kts 59°
2026-05-04 05:31 41.96236 -70.89681 6223 ft 266 kts 55°
2026-05-04 05:31 41.97241 -70.87717 6106 ft 248 kts 55°
2026-05-04 05:32 41.98201 -70.85845 6054 ft 242 kts 55°
2026-05-04 05:32 41.99159 -70.83975 6027 ft 242 kts 55°
2026-05-04 05:32 42.00276 -70.82300 5792 ft 242 kts 31°
2026-05-04 05:33 42.03400 -70.81174 5166 ft 225 kts 12°
2026-05-04 05:33 42.04904 -70.80708 4822 ft 219 kts 12°
2026-05-04 05:33 42.06377 -70.80268 4444 ft 216 kts 11°
2026-05-04 05:33 42.07842 -70.79882 4206 ft 209 kts
2026-05-04 05:34 42.09239 -70.79674 4093 ft 197 kts 360°
2026-05-04 05:34 42.10604 -70.79715 4072 ft 199 kts 356°
2026-05-04 05:34 42.11518 -70.79792 4040 ft 188 kts 355°
2026-05-04 05:34 42.13245 -70.80011 4024 ft 191 kts 353°
2026-05-04 05:35 42.14556 -70.80235 4023 ft 189 kts 351°
2026-05-04 05:35 42.15867 -70.80491 4017 ft 191 kts 353°
2026-05-04 05:35 42.16746 -70.80588 4020 ft 191 kts 355°
2026-05-04 05:35 42.18050 -70.80695 4005 ft 185 kts 355°
2026-05-04 05:36 42.19335 -70.80854 4000 ft 184 kts 346°
2026-05-04 05:36 42.20471 -70.81640 4019 ft 186 kts 327°
2026-05-04 05:36 42.21571 -70.82560 3881 ft 188 kts 329°
2026-05-04 05:36 42.22678 -70.83410 3502 ft 178 kts 329°
2026-05-04 05:37 42.23733 -70.84284 3190 ft 178 kts 326°
2026-05-04 05:37 42.24746 -70.85250 2929 ft 179 kts 322°
2026-05-04 05:37 42.25729 -70.86272 2692 ft 178 kts 320°
2026-05-04 05:38 42.27548 -70.88527 2189 ft 177 kts 315°
2026-05-04 05:38 42.28407 -70.89683 1946 ft 176 kts 314°
2026-05-04 05:38 42.29270 -70.90851 1708 ft 176 kts 314°
2026-05-04 05:38 42.30102 -70.91972 1476 ft 161 kts 314°
2026-05-04 05:39 42.30897 -70.93042 1276 ft 162 kts 314°
2026-05-04 05:39 42.32489 -70.95172 857 ft 161 kts 314°
2026-05-04 05:39 42.33283 -70.96236 651 ft 160 kts 315°
2026-05-04 05:40 42.34793 -70.98264 249 ft 150 kts 315°
2026-05-04 05:40 42.35519 -70.99238 46 ft 145 kts 315°
2026-05-04 05:40 42.36149 -71.00081 27 ft 111 kts 315°
2026-05-04 05:41 42.36524 -71.00581 28 ft 60 kts 315°
2026-05-04 05:41 42.36751 -71.00883 27 ft 35 kts 315°
2026-05-04 05:41 42.36916 -71.01111 26 ft 27 kts 303°
2026-05-04 05:41 42.36926 -71.01299 26 ft 17 kts 286°
2026-05-04 05:42 42.36991 -71.01412 27 ft 15 kts 313°
2026-05-04 05:42 42.37041 -71.01524 26 ft 13 kts 271°
2026-05-04 05:42 42.37061 -71.01631 29 ft 13 kts 304°
2026-05-04 05:42 42.37149 -71.01802 28 ft 31 kts 303°
2026-05-04 05:43 42.37222 -71.02051 26 ft 31 kts 258°
2026-05-04 05:43 42.37137 -71.02276 22 ft 16 kts 303°
2026-05-04 05:43 42.37186 -71.02310 25 ft 3 kts 309°
2026-05-04 05:45 42.37187 -71.02311 25 ft 0 kts 309°